Dewpoint
42 42 43 45 45 46 46 46 46 45 45 43 43 45 45 46 46 46 46 44 43 43 42 41 39 34 32 27 26 26 25 23 21 16 18 21 20 18 19 24 21 19 20
42 42 42 44 44 44 45 44 44 44 42 43 41 41 43 43 44 45 44 43 42 41 39 37 37 30 28 27 26 25 23 22 19 15 16 18 19 20 18 18 16 14 19
42 42 42 43 43 43 44 43 42 42 40 38 39 39 39 40 40 42 42 41 41 40 39 36 32 30 29 27 26 24 22 21 21 18 15 17 17 19 18 18 19 20 18
41 42 42 42 43 43 42 42 41 39 37 35 35 35 34 35 36 37 38 38 38 37 35 34 32 30 30 28 25 23 23 23 21 17 16 15 15 18 18 17 18 20 19
40 41 41 41 41 41 39 38 37 36 35 33 32 31 31 32 33 34 35 35 34 32 32 31 30 29 30 28 25 25 23 22 20 20 17 15 16 18 16 19 16 18 20
39 39 40 38 37 37 37 36 35 33 32 31 30 30 30 29 31 35 33 33 32 30 28 27 28 30 30 29 29 28 22 22 22 22 20 19 17 18 19 19 20 20 18
33 33 34 34 34 35 35 34 34 32 30 30 29 28 29 29 31 34 34 30 30 29 28 26 27 28 29 29 30 28 26 26 23 23 23 22 20 19 20 20 21 21 20
31 31 31 32 33 32 31 32 30 29 28 27 27 26 28 27 29 34 34 28 28 27 26 26 28 29 31 29 27 28 27 27 29 29 28 27 21 22 24 25 24 23 22
31 31 31 31 31 30 30 29 27 25 24 24 25 25 27 27 29 33 33 27 26 25 25 29 30 30 32 31 28 27 27 28 32 32 32 29 24 28 29 27 22 20 19
30 30 31 30 28 28 28 26 24 25 26 28 29 29 28 28 29 32 32 26 26 24 26 27 29 29 32 32 28 28 28 28 28 28 29 28 31 32 34 30 26 19 18
28 28 27 28 25 25 25 29 29 29 28 28 27 28 28 27 29 33 33 26 25 26 26 27 29 32 34 33 32 30 30 29 29 27 26 26 27 27 27 27 25 23 17
24 25 24 21 25 27 31 29 29 28 27 26 26 25 26 27 29 33 33 28 30 28 27 28 30 34 34 35 32 32 34 31 28 27 25 24 24 24 25 25 24 22 21
19 18 18 20 22 22 29 28 27 27 26 24 24 24 25 27 29 32 35 32 32 28 29 30 32 34 36 35 35 35 32 31 29 26 25 25 25 25 23 21 20 18 17
19 21 21 19 19 21 23 23 25 26 25 24 24 24 24 25 25 30 31 32 31 29 30 31 32 33 34 32 31 33 32 31 30 28 26 23 21 20 18 18 15 14 9
19 23 26 23 20 22 23 18 20 20 23 22 20 21 21 21 24 29 31 29 29 29 29 29 29 29 29 29 30 29 29 27 27 24 21 19 18 18 16 15 12 9 5
26 26 26 26 25 25 26 27 30 30 29 30 29 27 25 26 27 29 33 32 31 33 30 29 28 28 28 28 27 25 23 22 21 19 18 17 16 15 12 10 8 5 3
28 26 25 24 25 25 25 26 24 28 33 33 33 32 31 30 29 30 32 34 34 33 26 27 27 26 24 23 23 20 18 18 17 17 15 14 12 11 9 7 6 2 -4
26 26 24 25 26 25 24 23 23 20 20 23 30 30 33 32 31 31 33 33 27 24 24 23 21 21 19 18 18 16 12 11 11 10 8 7 8 7 5 4 3 -3 -8
22 22 23 24 24 24 24 23 21 19 18 17 19 20 21 26 26 27 26 21 17 16 16 15 14 10 8 8 6 4 3 3 3 2 -0 2 3 1 -7 -3 -0 -2 -7
19 20 20 21 21 21 21 20 19 18 15 14 14 13 13 13 10 9 9 9 8 5 5 4 -4 -5 -5 -3 -4 -3 -4 -5 -5 -6 -6 -4 -7 -9 -8 -9 -8 -7 -10
15 15 16 15 15 16 16 16 15 13 11 12 12 18 17 9 6 4 2 -0 -2 -4 -5 -6 -7 -8 -9 -10 -9 -9 -10 -8 -11 -15 -16 -16 -15 -16 -11 -4 -8 -10 -13
12 12 12 11 11 10 10 11 11 10 9 8 7 10 13 5 3 -0 -4 -8 -11 -11 -13 -11 -12 -14 -15 -14 -16 -16 -17 -17 -20 -18 -18 -17 -14 -14 -14 -12 -10 -10 -15
10 9 8 7 7 6 5 5 5 4 3 2 2 0 -2 -6 -8 -9 -11 -14 -14 -14 -16 -17 -17 -17 -21 -21 -21 -18 -18 -18 -16 -17 -14 -14 -13 -13 -14 -12 -14 -15 -15
6 5 4 3 2 1 0 -1 -2 -2 -3 -7 -10 -10 -9 -12 -13 -14 -15 -18 -17 -21 -21 -21 -22 -21 -23 -24 -26 -25 -24 -22 -24 -18 -16 -16 -15 -16 -19 -18 -14 -13 -11
3 1 0 -1 -1 -2 -3 -4 -5 -6 -8 -6 -10 -9 -13 -14 -16 -19 -20 -20 -21 -22 -20 -22 -23 -22 -22 -21 -22 -23 -23 -8 -19 -20 -24 -20 -18 -17 -18 -14 -13 -11 -10
-0 -1 -2 -3 -5 -6 -7 -7 -8 -8 -10 -11 -12 -15 -15 -16 -17 -20 -21 -22 -21 -21 -22 -23 -23 -21 -20 -18 -18 -14 -14 -6 -11 -12 -23 -21 -19 -19 -17 -14 -13 -11 -12
Lifted_Index
8 8 7 7 6 6 6 6 6 6 6 6 7 7 8 8 7 7 6 5 5 4 4 4 4 4 4 4 6 7 9 11 13 15 16 17 17 18 20 21 21 21 21
8 8 7 7 6 6 6 6 6 6 6 6 7 7 8 8 8 7 6 5 5 4 4 4 4 4 4 5 6 7 10 13 15 15 16 16 16 18 19 20 21 21 20
7 7 7 6 6 6 6 5 5 5 5 6 7 7 8 8 8 7 6 6 5 5 4 5 5 4 5 5 6 8 11 14 16 16 16 15 16 17 19 19 19 19 19
6 6 6 6 6 6 6 6 5 5 5 6 7 8 8 8 8 7 7 6 5 5 5 5 5 5 6 7 8 10 13 15 17 16 15 14 15 16 18 17 17 18 18
5 5 5 6 6 6 6 6 6 6 6 6 7 8 8 8 8 7 7 6 6 5 5 5 6 7 8 9 11 12 14 16 16 15 14 14 15 15 15 16 16 16 16
5 5 5 5 5 6 6 6 6 6 6 7 7 8 8 8 8 7 7 6 6 5 5 5 6 8 10 12 14 15 16 16 16 15 14 14 14 14 14 15 16 15 14
4 5 5 5 5 5 5 5 6 6 6 7 7 8 8 8 8 7 7 6 6 5 5 5 7 9 11 14 16 17 17 16 15 14 14 14 14 14 15 15 15 14 13
4 4 4 4 4 4 4 5 5 6 6 7 8 8 8 8 8 8 7 7 6 6 7 8 9 11 13 15 17 17 16 15 15 15 14 14 14 15 16 15 15 14 13
4 4 4 4 4 4 4 4 4 5 6 7 8 9 9 8 8 8 8 7 7 7 8 10 12 14 15 17 17 16 16 15 15 15 15 15 15 16 16 15 14 13 12
4 4 4 4 4 4 4 4 4 5 5 6 8 9 9 9 8 8 8 8 7 8 10 12 15 16 17 17 16 16 16 15 15 16 16 15 15 15 16 15 14 13 12
3 4 4 4 5 5 4 4 5 5 5 6 7 8 9 9 9 9 9 9 9 9 11 13 16 18 18 17 16 16 16 16 16 16 15 15 14 14 15 15 14 14 13
4 4 4 4 5 5 5 5 5 5 5 6 7 8 9 9 9 10 11 12 13 13 13 15 17 18 18 17 16 16 16 16 16 15 14 14 13 13 14 14 15 15 15
4 4 4 5 6 6 6 6 6 6 6 6 7 8 9 9 10 12 14 15 16 16 16 17 18 18 18 17 16 16 16 16 15 14 14 13 13 13 14 14 14 14 15
5 5 5 5 6 7 8 7 7 7 7 7 8 8 9 10 11 13 15 17 17 17 17 17 17 17 17 17 16 16 16 15 14 14 13 13 13 13 13 14 14 13 13
5 5 5 6 6 7 8 8 9 9 9 8 9 9 10 10 12 13 15 16 17 17 17 16 16 16 16 16 15 15 14 14 13 13 13 13 13 13 13 13 13 13 12
5 6 6 6 6 7 7 8 9 9 10 10 10 10 10 11 12 13 14 15 16 16 15 14 14 14 14 14 14 13 13 13 13 12 12 12 12 12 13 13 13 12 12
6 7 7 7 7 7 8 8 8 9 10 10 11 11 11 12 12 13 14 14 14 14 13 13 13 13 13 12 12 12 12 12 12 12 12 12 12 12 12 12 12 12 12
7 8 8 8 8 8 9 9 9 9 9 10 11 11 11 12 12 13 13 13 13 12 12 12 12 12 12 12 12 12 11 11 11 11 11 11 11 11 11 12 12 12 13
8 8 8 9 9 9 9 9 9 9 10 10 10 11 11 11 12 12 12 12 11 11 11 12 12 12 12 12 12 11 11 11 11 11 11 11 11 12 12 12 13 13 13
7 8 8 9 9 9 9 9 9 10 10 10 10 11 11 11 11 11 12 11 11 11 11 12 12 12 12 12 12 11 11 11 11 11 12 12 13 13 13 13 14 14 14
7 8 8 8 8 8 9 9 9 9 10 10 10 11 11 11 11 11 11 12 12 12 12 12 12 12 12 12 12 12 12 12 12 13 13 14 14 14 14 15 15 15 15
7 7 8 8 8 8 9 9 9 9 10 10 10 10 11 11 11 11 12 12 12 12 13 13 13 13 13 13 13 13 13 13 14 14 14 15 15 15 15 15 16 16 16
7 7 7 8 8 8 9 9 9 9 10 10 11 11 11 12 12 12 12 12 13 13 14 14 14 14 14 15 15 15 15 15 16 16 16 16 16 16 16 16 16 16 16
8 8 8 8 8 8 9 9 10 10 11 11 11 12 12 12 12 12 13 13 14 14 15 15 15 15 16 16 17 17 17 17 18 18 18 17 17 17 17 16 16 16 15
9 9 9 9 9 9 10 10 11 11 12 12 12 12 12 12 13 13 14 14 15 15 16 16 17 17 17 18 18 19 19 19 19 19 19 18 18 17 16 16 16 15 15
10 10 10 10 10 11 11 11 12 12 12 12 12 12 12 13 13 14 14 15 16 16 17 17 18 18 18 19 19 20 20 20 20 20 19 18 17 16 16 15 15 15 15